Tracking 28126 objects as of 1-Oct-2023
HD Live streaming from Space Station
objects crossing your sky now

STARLINK-2018

Track STARLINK-2018 now!
10-day predictions
STARLINK-2018 is classified as:


NORAD ID: 47640
Int'l Code: 2021-012W
Perigee: 553.6 km
Apogee: 555.1 km
Inclination: 53.1 °
Period: 95.6 minutes
Semi major axis: 6925 km
RCS: Unknown
Launch date: February 16, 2021
Source: United States (US)
Launch site: AIR FORCE EASTERN TEST RANGE (AFETR)
Your satellite tracking list
Your tracking list is empty




NASA's NSSDC Master Catalog

Two Line Element Set (TLE):
1 47640U 21012W   23273.75953063  .00016309  00000-0  11113-2 0  9990
2 47640  53.0526 111.1611 0001102 128.4138 231.6950 15.06397630145182
Source of the keplerian elements: AFSPC